TimeMDT,TemperatureF,Dew PointF,Humidity,Sea Level PressureIn,VisibilityMPH,Wind Direction,Wind SpeedMPH,Gust SpeedMPH,PrecipitationIn,Events,Conditions,WindDirDegrees,DateUTC
12:14 AM,51.8,48.2,88,30.43,10.0,Calm,Calm,-,N/A,,Clear,0,2013-07-02 06:14:00
12:34 AM,51.8,48.2,88,30.43,10.0,Calm,Calm,-,N/A,,Clear,0,2013-07-02 06:34:00
12:54 AM,51.8,48.2,88,30.44,10.0,Calm,Calm,-,N/A,,Clear,0,2013-07-02 06:54:00
1:14 AM,50.0,48.2,94,30.44,10.0,Calm,Calm,-,N/A,,Clear,0,2013-07-02 07:14:00
1:34 AM,50.0,46.4,87,30.44,10.0,Calm,Calm,-,N/A,,Clear,0,2013-07-02 07:34:00
1:54 AM,50.0,46.4,87,30.43,10.0,NNW,3.5,-,N/A,,Clear,340,2013-07-02 07:54:00
2:13 AM,48.2,44.6,87,30.43,10.0,North,8.1,-,N/A,,Clear,360,2013-07-02 08:13:00
2:34 AM,50.0,44.6,82,30.43,10.0,North,8.1,-,N/A,,Clear,360,2013-07-02 08:34:00
2:54 AM,48.2,44.6,87,30.42,10.0,NW,5.8,-,N/A,,Clear,320,2013-07-02 08:54:00
3:14 AM,48.2,44.6,87,30.41,10.0,NNW,10.4,-,N/A,,Clear,330,2013-07-02 09:14:00
3:34 AM,48.2,42.8,82,30.41,10.0,NNW,9.2,-,N/A,,Clear,340,2013-07-02 09:34:00
3:54 AM,50.0,42.8,76,30.41,10.0,North,6.9,-,N/A,,Clear,350,2013-07-02 09:54:00
4:13 AM,50.0,42.8,76,30.41,10.0,North,6.9,-,N/A,,Clear,350,2013-07-02 10:13:00
4:34 AM,48.2,42.8,82,30.41,10.0,NW,10.4,-,N/A,,Clear,320,2013-07-02 10:34:00
4:54 AM,50.0,42.8,76,30.42,10.0,NNW,8.1,-,N/A,,Clear,340,2013-07-02 10:54:00
5:14 AM,48.2,42.8,82,30.42,10.0,NNW,9.2,-,N/A,,Clear,330,2013-07-02 11:14:00
5:34 AM,46.4,41.0,81,30.43,10.0,NNW,8.1,-,N/A,,Clear,330,2013-07-02 11:34:00
5:54 AM,46.4,42.8,87,30.43,10.0,NNW,6.9,-,N/A,,Clear,330,2013-07-02 11:54:00
6:14 AM,46.4,42.8,87,30.44,10.0,NNW,5.8,-,N/A,,Clear,330,2013-07-02 12:14:00
6:34 AM,48.2,42.8,82,30.44,10.0,NNW,6.9,-,N/A,,Clear,330,2013-07-02 12:34:00
6:54 AM,50.0,42.8,76,30.44,10.0,NW,8.1,-,N/A,,Clear,310,2013-07-02 12:54:00
7:14 AM,51.8,44.6,76,30.44,10.0,NW,8.1,-,N/A,,Clear,320,2013-07-02 13:14:00
7:34 AM,53.6,42.8,67,30.44,10.0,NNW,9.2,-,N/A,,Clear,330,2013-07-02 13:34:00
8:14 AM,57.2,42.8,59,30.44,10.0,Calm,Calm,-,N/A,,Clear,0,2013-07-02 14:14:00
8:34 AM,57.2,44.6,63,30.45,10.0,Calm,Calm,-,N/A,,Clear,0,2013-07-02 14:34:00
8:54 AM,59.0,46.4,63,30.44,10.0,South,4.6,-,N/A,,Clear,170,2013-07-02 14:54:00
9:14 AM,59.0,46.4,63,30.43,10.0,South,5.8,-,N/A,,Clear,190,2013-07-02 15:14:00
9:34 AM,59.0,46.4,63,30.43,10.0,South,5.8,-,N/A,,Clear,180,2013-07-02 15:34:00
9:54 AM,60.8,48.2,63,30.43,10.0,South,8.1,-,N/A,,Clear,180,2013-07-02 15:54:00
10:14 AM,62.6,46.4,55,30.42,10.0,South,6.9,-,N/A,,Clear,180,2013-07-02 16:14:00
10:34 AM,62.6,46.4,55,30.42,10.0,South,5.8,-,N/A,,Clear,190,2013-07-02 16:34:00
10:53 AM,64.4,44.6,49,30.41,10.0,SSE,3.5,-,N/A,,Clear,150,2013-07-02 16:53:00
11:14 AM,64.4,46.4,52,30.40,10.0,SSE,5.8,-,N/A,,Clear,150,2013-07-02 17:14:00
11:34 AM,66.2,44.6,46,30.40,10.0,SSE,8.1,-,N/A,,Clear,150,2013-07-02 17:34:00
11:53 AM,66.2,44.6,46,30.40,10.0,SE,5.8,-,N/A,,Mostly Cloudy,130,2013-07-02 17:53:00
12:14 PM,68.0,44.6,43,30.39,10.0,SW,6.9,-,N/A,,Mostly Cloudy,220,2013-07-02 18:14:00
12:34 PM,69.8,44.6,40,30.38,10.0,South,6.9,-,N/A,,Scattered Clouds,180,2013-07-02 18:34:00
12:54 PM,71.6,44.6,38,30.36,10.0,SSW,9.2,-,N/A,,Scattered Clouds,210,2013-07-02 18:54:00
1:14 PM,71.6,44.6,38,30.36,10.0,SSW,9.2,-,N/A,,Scattered Clouds,200,2013-07-02 19:14:00
1:34 PM,71.6,42.8,35,30.35,10.0,SW,4.6,-,N/A,,Clear,220,2013-07-02 19:34:00
1:54 PM,71.6,42.8,35,30.34,10.0,South,6.9,-,N/A,,Scattered Clouds,170,2013-07-02 19:54:00
2:14 PM,75.2,42.8,31,30.33,10.0,SSE,9.2,-,N/A,,Scattered Clouds,160,2013-07-02 20:14:00
2:34 PM,71.6,41.0,33,30.32,10.0,SSE,8.1,-,N/A,,Mostly Cloudy,160,2013-07-02 20:34:00
2:54 PM,73.4,41.0,31,30.31,10.0,SE,8.1,-,N/A,,Scattered Clouds,140,2013-07-02 20:54:00
3:14 PM,75.2,41.0,29,30.30,10.0,South,5.8,-,N/A,,Mostly Cloudy,190,2013-07-02 21:14:00
3:34 PM,77.0,41.0,28,30.29,10.0,South,5.8,-,N/A,,Scattered Clouds,190,2013-07-02 21:34:00
3:54 PM,73.4,41.0,31,30.28,10.0,South,8.1,-,N/A,,Scattered Clouds,190,2013-07-02 21:54:00
4:14 PM,71.6,42.8,35,30.28,10.0,South,3.5,-,N/A,Thunderstorm,Thunderstorm,180,2013-07-02 22:14:00
4:34 PM,71.6,46.4,41,30.27,10.0,WSW,8.1,-,N/A,,Mostly Cloudy,250,2013-07-02 22:34:00
4:54 PM,75.2,41.0,29,30.26,10.0,SW,6.9,-,N/A,,Scattered Clouds,220,2013-07-02 22:54:00
5:13 PM,77.0,37.4,24,30.26,10.0,South,3.5,-,N/A,,Clear,180,2013-07-02 23:13:00
5:34 PM,75.2,37.4,25,30.25,10.0,SE,4.6,-,N/A,,Scattered Clouds,140,2013-07-02 23:34:00
5:54 PM,75.2,35.6,24,30.25,10.0,East,13.8,24.2,N/A,,Scattered Clouds,90,2013-07-02 23:54:00
6:13 PM,75.2,37.4,25,30.25,10.0,East,15.0,-,N/A,,Scattered Clouds,100,2013-07-03 00:13:00
6:34 PM,75.2,37.4,25,30.26,10.0,East,16.1,-,N/A,Thunderstorm,Scattered Clouds,100,2013-07-03 00:34:00
6:54 PM,66.2,46.4,49,30.27,7.0,ENE,13.8,24.2,N/A,Thunderstorm,Mostly Cloudy,70,2013-07-03 00:54:00
7:14 PM,66.2,44.6,46,30.29,7.0,ENE,18.4,24.2,N/A,,Overcast,60,2013-07-03 01:14:00
7:34 PM,66.2,42.8,43,30.29,10.0,NE,12.7,-,N/A,,Mostly Cloudy,50,2013-07-03 01:34:00
7:54 PM,66.2,42.8,43,30.29,10.0,Calm,Calm,-,N/A,Thunderstorm,Clear,0,2013-07-03 01:54:00
8:14 PM,66.2,41.0,40,30.31,10.0,West,4.6,-,N/A,,Scattered Clouds,270,2013-07-03 02:14:00
8:34 PM,66.2,39.2,37,30.31,10.0,NE,4.6,-,N/A,,Scattered Clouds,40,2013-07-03 02:34:00
8:54 PM,66.2,39.2,37,30.31,10.0,Calm,Calm,-,N/A,,Clear,0,2013-07-03 02:54:00
9:14 PM,64.4,41.0,42,30.32,10.0,WNW,3.5,-,N/A,,Clear,300,2013-07-03 03:14:00
9:34 PM,60.8,41.0,48,30.32,10.0,NW,3.5,-,N/A,,Clear,310,2013-07-03 03:34:00
9:54 PM,60.8,42.8,52,30.34,10.0,ENE,3.5,-,N/A,,Clear,60,2013-07-03 03:54:00
10:14 PM,62.6,41.0,45,30.34,10.0,Calm,Calm,-,N/A,,Clear,0,2013-07-03 04:14:00
10:34 PM,60.8,42.8,52,30.34,10.0,NW,3.5,-,N/A,,Clear,310,2013-07-03 04:34:00
10:54 PM,59.0,41.0,51,30.34,10.0,Calm,Calm,-,N/A,,Clear,0,2013-07-03 04:54:00
11:14 PM,53.6,42.8,67,30.34,10.0,East,4.6,-,N/A,,Clear,90,2013-07-03 05:14:00
11:34 PM,53.6,42.8,67,30.34,10.0,NE,3.5,-,N/A,,Clear,50,2013-07-03 05:34:00
11:54 PM,53.6,42.8,67,30.35,10.0,NE,4.6,-,N/A,,Clear,50,2013-07-03 05:54:00